Portage Des Sioux, MO

10:52 PM CDT on August 26, 2016 (GMT -0500)
Saint Charles County Smartt

Weather History for KSET - December, 2013

Change the Weather History Date:

Friday, December 20, 2013

  Actual Average (KSTL) Record (KSTL)
Temperature  
Mean Temperature 50 °F 33 °F  
Max Temperature 64 °F 41 °F 71 °F (2013)
Min Temperature 34 °F 26 °F -10 °F (1901)
Degree Days  
Heating Degree Days 16 32  
Month to date heating degree days 580  
Since 1 July heating degree days 1406  
Cooling Degree Days 0 0  
Month to date cooling degree days 0  
Year to date cooling degree days 1646  
Moisture  
Dew Point 42 °F    
Average Humidity 93    
Maximum Humidity 100    
Minimum Humidity 78    
Precipitation  
Precipitation 0.04 in 0.09 in 1.36 in (1962)
Month to date precipitation 1.87  
Year to date precipitation 39.99  
Snow  
Snow 0.00 in 0.20 in 3.30 in (1960)
Month to date snowfall 2.5  
Since 1 July snowfall 3.2  
Snow Depth -    
Sea Level Pressure  
Sea Level Pressure 29.78 in    
Wind  
Wind Speed 7 mph (SSW)    
Max Wind Speed 16 mph    
Max Gust Speed -    
Visibility 6 miles    
Events Fog , Rain    
T = Trace of Precipitation, MM = Missing Value Source: NWS Daily Summary

Daily Weather History Graph

Daily Weather History Graph

Search for Another Location

Airport or City:

Trip Planner

Search our weather history database for the weather conditions in past years. The results will help you decide how hot, cold, wet, or windy it might be!

Date:

Astronomy

Dec. 20, 2013 Rise Set
Actual Time 7:16 AM CST 4:42 PM CST
Civil Twilight 6:46 AM CST 5:12 PM CST
Nautical Twilight 6:12 AM CST 5:46 PM CST
Astronomical Twilight 5:40 AM CST 6:18 PM CST
Moon 8:01 PM CST (12/20) 9:11 AM CST (12/20)
Length of Visible Light 10h 26m
Length of Day
9h 26m
Waning Gibbous, 90% of the Moon is Illuminated
Dec 20
Waning Gibbous
Dec 25
Last Quarter
Jan 1
New
Jan 7
First Quarter
Jan 15
Full

Hourly Weather History & Observations

Time (CST) Temp. Windchill Dew Point Humidity Pressure Visibility Wind Dir Wind Speed Gust Speed Precip Events Conditions
12:21 AM 48.0 °F - 45.0 °F 89% 29.77 in 10.0 mi South 5.8 mph - N/A   Overcast
12:38 AM 44.1 °F 38.1 °F 42.1 °F 93% 29.77 in 10.0 mi SSE 11.5 mph - N/A   Overcast
12:54 AM 45.0 °F 40.1 °F 43.0 °F 93% 29.76 in 10.0 mi SSE 9.2 mph - N/A   Overcast
1:54 AM 44.1 °F 40.1 °F 43.0 °F 96% 29.75 in 9.0 mi SE 6.9 mph - N/A   Overcast
2:45 AM 41.0 °F 37.1 °F 39.9 °F 96% 29.75 in 1.8 mi ESE 5.8 mph - 0.01 in   Overcast
2:54 AM 42.1 °F 37.1 °F 42.1 °F 100% 29.75 in 3.0 mi SE 8.1 mph - 0.01 in   Overcast
3:54 AM 45.0 °F 40.6 °F 44.1 °F 97% 29.74 in 10.0 mi SSE 8.1 mph - N/A   Overcast
4:54 AM 46.0 °F 43.9 °F 45.0 °F 96% 29.73 in 8.0 mi East 4.6 mph - N/A   Overcast
5:27 AM 44.1 °F 40.1 °F 43.0 °F 96% 29.73 in 1.8 mi ESE 6.9 mph - N/A   Overcast
5:38 AM 42.1 °F 38.4 °F 42.1 °F 100% 29.73 in 0.8 mi ESE 5.8 mph - N/A   Overcast
5:46 AM 42.1 °F 38.4 °F 41.0 °F 96% 29.73 in 2.0 mi ESE 5.8 mph - N/A   Overcast
5:54 AM 43.0 °F 39.5 °F 42.1 °F 97% 29.73 in 2.0 mi SE 5.8 mph - N/A   Overcast
6:04 AM 41.0 °F 35.8 °F 41.0 °F 100% 29.73 in 4.0 mi SSE 8.1 mph - N/A   Mostly Cloudy
6:35 AM 41.0 °F - 39.9 °F 96% 29.74 in 1.8 mi Calm Calm - N/A   Partly Cloudy
6:44 AM 45.0 °F 42.6 °F 43.0 °F 93% 29.74 in 3.0 mi South 4.6 mph - N/A   Scattered Clouds
6:54 AM 46.0 °F 41.9 °F 46.0 °F 100% 29.73 in 8.0 mi South 8.1 mph - N/A   Partly Cloudy
7:29 AM 39.9 °F - 39.9 °F 100% 29.74 in 0.8 mi Calm Calm - N/A   Clear
7:49 AM 42.8 °F 39.3 °F 42.8 °F 100% 29.74 in 3.0 mi South 5.8 mph - N/A   Scattered Clouds
7:54 AM 45.0 °F 41.8 °F 44.1 °F 97% 29.74 in 4.0 mi South 5.8 mph - N/A   Scattered Clouds
7:59 AM 42.1 °F 39.2 °F 42.1 °F 100% 29.74 in 1.8 mi South 4.6 mph - N/A   Partly Cloudy
8:09 AM 42.1 °F 38.4 °F 42.1 °F 100% 29.73 in 0.2 mi South 5.8 mph - N/A Fog Fog
8:19 AM 46.0 °F 41.9 °F 45.0 °F 96% 29.74 in 2.0 mi South 8.1 mph - N/A   Mostly Cloudy
8:27 AM 48.0 °F - 48.0 °F 100% 29.74 in 6.0 mi South 8.1 mph - N/A   Mostly Cloudy
8:54 AM 50.0 °F - 50.0 °F 100% 29.74 in 8.0 mi South 6.9 mph - N/A   Mostly Cloudy
9:54 AM 53.1 °F - 51.1 °F 93% 29.75 in 10.0 mi South 8.1 mph - N/A   Mostly Cloudy
10:54 AM 57.0 °F - 54.0 °F 89% 29.75 in 10.0 mi SSW 5.8 mph - N/A   Overcast
11:54 AM 64.9 °F - 57.9 °F 78% 29.71 in 10.0 mi SW 12.7 mph - N/A   Mostly Cloudy
12:54 PM 61.0 °F - 55.0 °F 81% 29.69 in 10.0 mi West 13.8 mph - 0.00 in Rain Light Rain
1:54 PM 48.0 °F - 43.0 °F 83% 29.75 in 5.0 mi WNW 16.1 mph - 0.00 in   Haze
2:29 PM 45.0 °F 38.5 °F 41.0 °F 86% 29.77 in 5.0 mi West 13.8 mph - N/A   Overcast
2:54 PM 43.0 °F 36.0 °F 39.9 °F 89% 29.79 in 5.0 mi West 13.8 mph - N/A   Overcast
3:54 PM 41.0 °F 35.8 °F 37.0 °F 86% 29.82 in 8.0 mi West 8.1 mph - N/A   Overcast
4:08 PM 41.0 °F 35.2 °F 37.0 °F 86% 29.82 in 8.0 mi West 9.2 mph - N/A   Overcast
4:54 PM 39.9 °F 33.9 °F 36.0 °F 86% 29.83 in 9.0 mi WNW 9.2 mph - N/A   Overcast
5:22 PM 39.0 °F 33.4 °F 35.1 °F 86% 29.84 in 10.0 mi WNW 8.1 mph - N/A   Overcast
5:54 PM 39.0 °F 33.4 °F 35.1 °F 86% 29.85 in 10.0 mi WNW 8.1 mph - N/A   Overcast
6:54 PM 37.9 °F 31.5 °F 35.1 °F 89% 29.88 in 9.0 mi West 9.2 mph - N/A   Overcast
7:54 PM 37.0 °F 29.8 °F 34.0 °F 89% 29.89 in 8.0 mi WNW 10.4 mph - N/A   Overcast
8:54 PM 37.0 °F 32.4 °F 33.1 °F 86% 29.87 in 10.0 mi West 5.8 mph - N/A   Overcast
9:26 PM 36.0 °F 30.3 °F 33.1 °F 89% 29.86 in 9.0 mi West 6.9 mph - N/A   Overcast
9:54 PM 36.0 °F 29.6 °F 33.1 °F 89% 29.88 in 7.0 mi WNW 8.1 mph - N/A   Overcast
10:12 PM 35.1 °F 29.3 °F 33.1 °F 92% 29.87 in 7.0 mi West 6.9 mph - N/A   Overcast
10:54 PM 35.1 °F 28.6 °F 33.1 °F 92% 29.87 in 6.0 mi WNW 8.1 mph - N/A   Overcast
11:54 PM 34.0 °F 28.8 °F 33.1 °F 96% 29.86 in 3.0 mi WNW 5.8 mph - 0.03 in Rain Light Rain